Location: Aranbee
(34.0885°N, 118.2342°W)
Time: 02:31:24
(UTC+00:00)

Hubble Space Telescope - Pass Details

Date: 28 October 2020
Orbit: 536 x 540 km, 28.5° (Epoch: 30 November)

Event Time Altitude Azimuth Distance (km) Brightness Sun altitude
Rises 01:35:06 0° 257° (WSW) 2,666 7.0 -7.0°
Reaches altitude 10° 01:38:58 10° 220° (SW) 1,774 4.2 -7.8°
Maximum altitude 01:40:06 11° 204° (SSW) 1,712 3.8 -8.1°
Drops below altitude 10° 01:41:14 10° 188° (S) 1,773 3.7 -8.3°
Sets 01:45:07 0° 151° (SSE) 2,661 4.1 -9.1°
